Starlink 32905

operational
NORAD ID: 62923 Int'l Des: 2025-027 Owner: SPXS Country: US Constellation: starlink
LEOCIRCULAR

关于 Starlink 32905

正在加载描述...

实时位置

正在加载3D地球...

即将过境

高度历史

Altitude vs Time

uPlot chart will show altitude changes over time

两行轨道根数

1 62923U 25027S 25303.26811450 .00028778 00000-0 10509-2 0 9997
2 62923 43.0008 145.6280 0001547 260.9712 99.0964 15.27590337 41597
Epoch: Oct 30, 2025 • Age: 15 hours

当前状态

高度 491.6 km
速度 7.62 km/s
星下点 -33.62°S, 88.98°E
发射日期 Feb 8, 2025
运行时间 0.7 years
类型 internet

技术详情

分类 Payload
质量 730.00 kg
干质量 700.00 kg
总质量 730.00 kg
长度 0.30 m
直径 4.10 m
跨度 29.00 m
形状 Box + pan
制造商 SPXS
平台类型 Starlink V2M
阶段状态 In Orbit
所有者/国家 SPXS/US

大型星座

Loading constellations...